OPS 5712 (P/L 153)

Satellite information

Favourite Embed

Satellite Type and Status

PAYLOADIN ORBIT

Key statistics

Satellite OPS 5712 (P/L 153) at a glance.

Uptime

21382

Days in orbit

Revolutions

≈ 14.0

Per day

Orbit

LEO

Low Earth Orbit

Inclination

70.0

Latest

Satellite identification and parameters

Extended collection of information and parameters for OPS 5712 (P/L 153).

Object identification

Identified? True

Debris? False

Object name: OPS 5712 (P/L 153)

International designator: 1967-053H

Object number (NORAD): 2874

Object ID (CCSDS): 2874

Country: UNITED STATES OF AMERICA (US)

Current information (Y/N): Y

RCS size: MEDIUM

Orbital parameters

Period: 103.093 minutes

Inclination: 69.9722 deg

SMA: 7283.063 km

Apoapsis: 908.186 km

Periapsis: 901.67 km

RAAN: 156.0433 deg

Eccentricy: 0.00044738

Argument of periapsis: 71.5658 deg

Mean anomaly: 288.5934 deg

Mean motion: 13.96791761 rev/day

Mean motion (dot): 0.00000094 rev/day2

B* drag term: 0.00010614075 1/REarth

Two-line elements (TLE)

Creation date: Dec. 12, 2025, 10:14 a.m.

Reference frame: TEME

Reference center: EARTH

Epoch: Dec. 12, 2025, 5:18 a.m. UTC

TLE line 0: 0 OPS 5712 (P/L 153)

TLE line 1: 1 02874U 67053H 25346.22103150 .00000094 00000-0 10614-3 0 9994

TLE line 2: 2 02874 69.9722 156.0433 0004474 71.5658 288.5934 13.96791761980670

Live tracking on map

Real-time ground track for satellite OPS 5712 (P/L 153).

In-orbit conjunctions

There are no conjunctions computed for OPS 5712 (P/L 153), at the moment. Check back to stay up to date, as we update our databases every day.

Go to all conjunctions

Associated space launch

Poppy was the follow-on ELINT system, which succeeded the Grab ELINT satellite system.

OPS 5712 (P/L 153) was lifted into orbit during the mission ‘Thor SLV-2 Agena D | Poppy 7A,B,C,D’, on board a Thor SLV-2 Agena D space rocket.

The launch took place on May 31, 1967, 9:30 a.m. from Space Launch Complex 2W.

For more information about the launch, click the button.

Launch to space Thor SLV-2 Agena D | Poppy 7A,B,C,D
Thor SLV-2 Agena D | Poppy 7A,B,C,D

Agency: N/A

Status: Launch Successful

Launch date: May 31, 1967, 9:30 a.m. UTC

Rocket: Thor SLV-2 Agena D

Launch pad: Space Launch Complex 2W

Location: Vandenberg SFB, CA, USA

...

Latest news about this satellite

There are no fresh news available about this satellite. Check back as we update our databases every day.


Newsletter sign-up

Weekly statistics, charts and insights to help you stay on top of the space industry.